Location: Newport
(44.6370°N, 124.0520°W)
Time: 02:11:13
(UTC-08:00)

Vanguard 3 - Visible Passes

Search period start: 11 December 2018 00:00
Search period end: 21 December 2018 00:00
Orbit: 508 x 3263 km, 33.4° (Epoch: 11 December)

Date Brightness Start Highest point End Pass type
(mag) Time Alt. Az. Time Alt. Az. Time Alt. Az.
11 Dec 10.9 18:38:35 10° S 18:49:26 18° SE 18:54:49 16° ESE visible
11 Dec 10.5 20:46:02 10° SSW 20:59:24 36° S 20:59:24 36° S visible
11 Dec 11.2 22:59:46 10° WSW 23:03:59 19° WSW 23:03:59 19° WSW visible
12 Dec 10.6 19:32:11 10° SSW 19:47:32 30° SE 19:49:43 30° SE visible
12 Dec 10.6 21:43:38 10° SW 21:54:18 36° SSW 21:54:18 36° SSW visible
13 Dec 10.9 18:20:09 10° S 18:32:10 21° SE 18:40:02 16° ESE visible
13 Dec 10.3 20:28:29 10° SW 20:44:36 42° SSE 20:44:36 42° SSE visible
13 Dec 10.9 22:42:20 10° WSW 22:49:11 26° WSW 22:49:11 26° WSW visible
14 Dec 11.2 17:12:57 10° SE 17:17:23 11° SE 17:21:56 10° ESE visible
14 Dec 10.5 19:14:33 10° SSW 19:30:13 34° SE 19:34:53 31° SE visible
14 Dec 10.4 21:26:16 10° SW 21:39:27 44° SSW 21:39:27 44° SSW visible
14 Dec 11.3 23:41:44 10° WSW 23:44:02 15° WSW 23:44:02 15° WSW visible
15 Dec 10.9 18:02:14 10° S 18:14:51 24° SE 18:25:08 15° ESE visible
15 Dec 10.2 20:11:10 10° SW 20:28:49 46° SSE 20:29:42 45° SSE visible
15 Dec 10.7 22:25:01 10° WSW 22:34:16 34° WSW 22:34:16 34° WSW visible
16 Dec 11.2 16:53:09 10° SSE 17:00:07 13° SE 17:07:36 10° ESE visible
16 Dec 10.5 18:57:14 10° SSW 19:12:53 37° SSE 19:19:56 29° ESE visible
16 Dec 10.2 21:09:05 10° WSW 21:24:30 51° SSW 21:24:30 51° SSW visible
16 Dec 11.2 23:24:25 10° W 23:29:04 21° WSW 23:29:04 21° WSW visible
17 Dec 10.8 17:44:43 10° S 17:57:31 26° SE 18:10:08 13° E visible
17 Dec 10.2 19:54:04 10° SW 20:11:30 48° SSE 20:14:42 46° SE visible
17 Dec 10.5 22:07:51 10° WSW 22:19:15 41° SW 22:19:15 41° SW visible
18 Dec 10.5 18:40:09 10° SSW 18:55:32 39° SSE 19:04:52 27° ESE visible
18 Dec 10.1 20:52:03 10° WSW 21:09:25 56° S 21:09:25 56° S visible
18 Dec 11.0 23:07:12 10° W 23:13:59 26° WSW 23:13:59 26° WSW visible
19 Dec 10.8 17:27:32 10° S 17:40:12 29° SE 17:55:00 10° E visible
19 Dec 10.2 19:37:10 10° SW 19:54:11 51° SSE 19:59:34 43° SE visible
19 Dec 10.4 21:50:48 10° WSW 22:04:07 48° SW 22:04:07 48° SW visible
20 Dec 11.4 00:07:00 10° W 00:08:41 13° W 00:08:41 13° W visible
20 Dec 10.4 18:23:19 10° SSW 18:38:12 42° SSE 18:49:41 23° E visible
20 Dec 10.0 20:35:12 10° WSW 20:53:20 58° S 20:54:15 57° SSE visible
20 Dec 10.8 22:50:06 10° W 22:58:48 32° WSW 22:58:48 32° WSW visible
